Regional Weather Roundup
Issued by NWS Sterling, VA

Current Version | Previous Version | Text Only | Print | Product List | Glossary On
Versions: 1 2 3 4 5 6 7 8 9 10 11 12 13 14 15 16 17 18 19 20 21 22 23 24 25 26 27 28
000
ASUS41 KLWX 260110
RWRLWX

REGIONAL WEATHER ROUNDUP
NATIONAL WEATHER SERVICE BALTIMORE MD/WASHINGTON DC
900 PM EDT SAT OCT 25 2014

Note: "FAIR" indicates few or no clouds below 12,000 feet
with no significant weather and/or obstructions to visibility.
 TC=TEMPERATURE CELSIUS

 * =Non NWS site. Station does not report precipitation (e.g. rain,
    snow, etc.), thunder, or fog.

DCZ001-MDZ009-015-VAZ040>042-051-053>054-260200-
WASHINGTON METRO

CITY           SKY/WX    TMP DP  RH WIND       PRES   REMARKS
WASHINGTON NAT PTCLDY    61  47  59 SW3       29.74F
DULLES         CLEAR     57  41  55 S3        29.74F
ANDREWS AFB    CLEAR     60  42  50 SW10      29.73F
FT BELVOIR     CLEAR     53  46  78 CALM      29.74F
QUANTICO       CLEAR     63  42  46 W6        29.75F
COLLEGE PARK*  CLEAR     63  43  48 CALM      29.73S
LEESBURG*      CLEAR     63  45  51 W7        29.74F
MANASSAS*      CLEAR     52  45  76 CALM      29.74S
GAITHERSBURG*  CLEAR     57  41  54 CALM      29.77S

$$

MDZ006>007-011-014-260200-
BALTIMORE METRO

CITY           SKY/WX    TMP DP  RH WIND       PRES   REMARKS
BWI AIRPORT    CLEAR     59  41  51 SW6       29.71F
MD SCIENCE CTR   N/A     62  41  46 MISG      29.72F
MARTIN STATE   CLEAR     63  45  51 CALM      29.73S
ANNAPOLIS      CLEAR     59  40  49 CALM      29.72F
FORT MEADE*    CLEAR     50  46  87 SW5       29.74F

$$

MDZ012-015-019>023-260200-
MARYLAND EASTERN SHORE

CITY           SKY/WX    TMP DP  RH WIND       PRES   REMARKS
OCEAN CITY     CLEAR     59  46  62 W12       29.76S
SALISBURY      CLEAR     57  48  72 SW7       29.76S
BAY BRIDGE AP*   N/A     63  43  48 S7        29.73F
CAMBRIDGE*     CLEAR     59  45  58 SW3       29.74F

$$

MDZ017>025-260200-
SOUTHERN MARYLAND

CITY           SKY/WX    TMP DP  RH WIND       PRES   REMARKS
PATUXENT RIVER CLEAR     61  41  47 SW12      29.75F
ST INIGOES     CLEAR     62  42  47 SW10      29.76F
LEONARDTOWN*   CLEAR     61  41  48 SW9       29.76F

$$

MDZ003>005-260200-
NORTH CENTRAL MARYLAND

CITY           SKY/WX    TMP DP  RH WIND       PRES   REMARKS
FREDERICK*     CLEAR     64  41  42 SW9       29.75S
HAGERSTOWN APT CLEAR     64  46  52 W9        29.71F
WESTMINSTER*   CLEAR     61  43  51 SW6       29.71F

$$

MDZ501>502-260200-
WESTERN MARYLAND

CITY           SKY/WX    TMP DP  RH WIND       PRES   REMARKS
OAKLAND*       CLOUDY    52  52 100 W15G24    29.81S
CUMBERLAND*    CLEAR     64  46  52 SW12      29.78F

$$

VAZ025>031-260200-
SHENANDOAH VALLEY

CITY           SKY/WX    TMP DP  RH WIND       PRES   REMARKS
WINCHESTER*    CLEAR     63  39  42 SW3       29.74F
FRONT ROYAL*   FAIR      66  45  45 W7        29.73S
LURAY*         FAIR      64  46  52 S9        29.75F
NEW MARKET*    FAIR      52  45  78 CALM      29.77S
STAUNTON*      CLEAR     61  44  53 SW6       29.81F
WAYNESBORO*    FAIR      63  45  52 SW9G16    29.81S

$$

WVZ021-048>050-054>055-260200-
EASTERN WEST VIRGINIA PANHANDLE

CITY           SKY/WX    TMP DP  RH WIND       PRES   REMARKS
MARTINSBURG    CLEAR     63  45  51 W6        29.74S
PETERSBURG*    CLEAR     65  45  47 W12G21    29.79F

$$

VAZ036>039-050-260200-
CENTRAL FOOTHILLS

CITY           SKY/WX    TMP DP  RH WIND       PRES   REMARKS
CHARLOTTESVILL CLEAR     66  43  43 SW7       29.77F
CULPEPER*      CLEAR     57  45  62 SW5       29.75F
ORANGE*        CLEAR     52  45  76 CALM      29.77F
GORDONSVILLE*  FAIR      55  45  67 W3        29.76F
WARRENTON*     FAIR      60  49  66 SW5       29.74S

$$

VAZ055>057-260200-
NORTH AND CENTRAL PIEDMONT

CITY           SKY/WX    TMP DP  RH WIND       PRES   REMARKS
FREDERICKSBRG* CLEAR     61  44  53 SW9       29.74F
STAFFORD*      CLEAR     58  41  53 CALM      29.79F

$$

NCZ024-NYZ072-PAZ021-071-VAZ022-071-260200-
OTHER REGIONAL OBSERVATIONS

CITY           SKY/WX    TMP DP  RH WIND       PRES   REMARKS
NEW YORK CITY  CLEAR     63  43  48 MISG      29.64F
PHILADELPHIA   PTCLDY    62  46  55 SW12      29.68F
PITTSBURGH     PTCLDY    61  52  72 SW9       29.75S
ROANOKE        CLEAR     66  48  52 W16G28    29.89S
RICHMOND       CLEAR     60  44  55 SW9       29.80F
RALEIGH        PTCLDY    56  47  71 SW3       29.90S

$$

ANZ530>537-260200-
MARINE OBSERVATIONS

STATION/POSITION TIME  TEMP    WIND        PRES
                       AIR SEA DIR/SP/G
                 (UTC) (F)     (DEG/KT/KT) (MB)
THOMAS PT LIGHT  0100   63 62  210/ 12/ 13 1007.6F
BALT KEY BRIDGE  0100   62     200/  7/  9 1005.8F
COVE POINT       0100   62     230/ 12/ 14 1007.2F
LEWISETTA        0100   62 60  230/ 12/ 14 1007.6S
SOLOMONS ISLAND  0100      63                N/A
PINEY POINT      0100          250/  6/  9   N/A

$$




USA.gov is the U.S. government's official web portal to all federal, state and local government web resources and services.